Location: Chervonnoye
(48.6000°N, 34.4000°E)
Time: 08:02:52
(UTC+00:00)

Nadezhda 1 Rocket - Pass Details

Date: 24 April 2021
Orbit: 940 x 1006 km, 83.0° (Epoch: 13 May)

Event Time Altitude Azimuth Distance (km) Brightness Sun altitude
Exits shadow 19:39:58 10° 82° (E) 2,759 6.1 -22.7°
Maximum altitude 19:40:59 11° 73° (ENE) 2,729 6.2 -22.8°
Drops below altitude 10° 19:42:17 10° 61° (ENE) 2,778 6.3 -22.9°
Sets 19:47:20 0° 26° (NNE) 3,722 7.5 -23.4°
